FW3928 Weather Reports


time (UTC)temp
C
wind
direction
speed
KPH
gust
KPH
rain 1hr
cm
rain 24hr
cm
rain mn
cm
humidity
%
barometer
mb
20260508203013 12 348 8.0 19.3 0.00 1.12 0.00 65 1002.2
20260508201513 12 48 6.4 14.5 0.00 1.12 0.00 67 1002.0
20260508200012 12 303 4.8 19.3 0.00 1.96 0.00 65 1001.6
20260508194511 12 24 3.2 24.1 0.00 1.96 0.00 66 1001.5
20260508193010 12 30 9.7 19.3 0.00 1.96 0.00 70 1001.3
20260508191510 12 62 11.3 20.9 0.00 1.96 0.00 67 1001.4
20260508190009 12 50 9.7 20.9 0.00 2.18 0.00 69 1001.2
20260508184509 12 25 12.9 22.5 0.00 2.18 0.00 69 1000.9
20260508183009 13 63 11.3 19.3 0.00 2.18 0.00 64 1001.3
20260508181503 12 29 4.8 17.7 0.00 2.18 0.00 66 1001.4
20260508180101 12 42 9.7 19.3 0.00 2.18 0.00 66 1001.7
20260508174603 12 34 9.7 17.7 0.00 2.18 0.00 69 1001.6
20260508173055 12 6 11.3 19.3 0.00 2.18 0.00 69 1001.7
20260508171551 11 348 9.7 19.3 0.00 2.18 0.00 77 1001.7
20260508170051 10 343 8.0 17.7 0.00 2.18 0.00 78 1001.9
20260508164551 10 81 6.4 14.5 0.00 2.18 0.00 77 1001.9
20260508163050 10 48 8.0 17.7 0.00 2.18 0.00 78 1001.9
20260508161549 10 22 8.0 17.7 0.00 2.18 0.00 78 1001.8
20260508160109 10 358 8.0 16.1 0.00 2.18 0.00 78 1001.9
20260508154547 10 331 4.8 16.1 0.00 2.18 0.00 78 1002.1
20260508153048 10 348 3.2 24.1 0.00 2.18 0.00 78 1001.5
20260508151550 10 23 8.0 20.9 0.00 2.18 0.00 78 1001.9
20260508150045 11 20 4.8 17.7 0.00 2.18 0.00 80 1001.8
20260508144544 11 8 6.4 19.3 0.00 2.18 0.00 83 1002.1
20260508143050 10 27 1.6 19.3 0.00 2.18 0.00 84 1002.0
20260508141548 9 31 8.0 19.3 0.00 2.18 0.00 84 1002.1
20260508140036 9 14 11.3 24.1 0.00 2.18 0.00 85 1002.4
20260508134535 9 6 6.4 14.5 0.00 2.18 0.00 87 1002.5
20260508133132 9 21 9.7 17.7 0.00 2.18 0.00 87 1002.7
20260508131531 9 342 6.4 17.7 0.00 2.18 0.00 90 1002.5
20260508130028 9 343 4.8 12.9 0.00 2.18 0.00 93 1002.3
20260508124525 8 291 4.8 14.5 0.00 2.18 0.00 94 1002.2
20260508123025 8 40 4.8 17.7 0.00 2.18 0.00 96 1002.5
20260508121548 8 325 4.8 22.5 0.00 2.18 0.00 97 1002.5
20260508120019 8 19 4.8 17.7 0.00 2.18 0.00 99 1002.5
20260508114517 7 13 3.2 16.1 0.00 2.18 0.00 99 1002.6
20260508113017 7 2 3.2 6.4 0.00 2.18 0.00 99 1002.6
20260508111516 6 353 1.6 6.4 0.00 2.18 0.00 98 1002.6
20260508110016 6 358 1.6 6.4 0.00 2.18 0.00 98 1002.5
20260508104515 5 358 0.0 6.4 0.00 2.18 0.00 98 1002.9
20260508103016 5 353 0.0 3.2 0.00 2.18 0.00 98 1003.0
20260508101513 5 353 1.6 3.2 0.00 2.18 0.00 98 1002.7
20260508100012 5 353 0.0 0.0 0.00 2.18 0.00 98 1002.7
20260508094510 5 353 0.0 6.4 0.00 2.18 0.00 98 1002.4
20260508093013 6 348 1.6 4.8 0.00 2.18 0.00 98 1002.5
20260508091512 6 348 1.6 6.4 0.00 2.18 0.00 98 1002.5
20260508090013 6 358 0.0 6.4 0.00 2.18 0.00 98 1002.5
20260508084505 6 348 4.8 9.7 0.00 2.18 0.00 98 1002.4
20260508083013 6 17 3.2 9.7 0.00 2.18 0.00 98 1002.3
20260508081503 6 19 3.2 16.1 0.00 2.18 0.00 98 1002.1
20260508080002 6 24 6.4 14.5 0.00 2.18 0.00 98 1002.0
20260508074601 6 17 8.0 19.3 0.00 2.18 0.00 98 1001.8
20260508073104 7 39 4.8 14.5 0.00 2.18 0.00 98 1002.0
20260508071558 7 25 4.8 9.7 0.00 2.18 0.00 98 1002.1
20260508070100 7 8 9.7 17.7 0.00 2.18 0.00 98 1002.2
20260508064609 7 22 4.8 12.9 0.00 2.18 0.00 99 1001.9
20260508063055 7 235 0.0 0.0 0.00 2.18 0.00 98 1002.0
20260508061552 7 235 0.0 0.0 0.00 2.18 0.00 98 1001.9
20260508060052 7 235 0.0 0.0 0.00 2.18 0.00 98 1001.6
20260508054555 7 235 0.0 0.0 0.00 2.18 0.00 98 1001.8
20260508053050 7 235 0.0 0.0 0.00 2.18 0.00 98 1002.0
20260508051549 7 235 0.0 0.0 0.00 2.18 0.00 98 1001.7
20260508050051 7 235 0.0 0.0 0.00 2.18 0.00 98 1001.9
20260508044547 7 235 0.0 0.0 0.00 2.18 0.00 98 1001.9
20260508043047 6 235 0.0 1.6 0.00 2.18 0.00 98 1001.8
20260508041545 6 235 0.0 0.0 0.00 2.18 0.00 98 1002.1
20260508040043 6 235 0.0 0.0 0.00 2.18 0.00 98 1002.1
20260508034542 6 235 0.0 0.0 0.00 2.18 0.00 98 1002.4
20260508033141 6 235 1.6 3.2 0.00 2.18 0.00 98 1002.5
20260508031538 6 235 1.6 4.8 0.00 2.18 0.00 98 1002.4
20260508030035 6 235 3.2 6.4 0.00 2.18 2.18 98 1002.6
20260508024541 6 235 1.6 6.4 0.00 2.18 2.18 98 1002.4
20260508023037 6 235 1.6 6.4 0.00 2.18 2.18 98 1002.3
20260508021535 6 235 1.6 6.4 0.00 2.18 2.18 98 1002.3
20260508020033 6 255 3.2 11.3 0.00 2.18 2.18 98 1002.4
20260508014534 6 247 6.4 12.9 0.00 2.18 2.18 98 1002.8
20260508013031 6 262 1.6 12.9 0.00 2.18 2.18 98 1002.4
20260508011541 6 229 4.8 12.9 0.00 2.18 2.18 98 1002.4
20260508010032 6 231 6.4 16.1 0.00 2.18 2.18 98 1002.8
20260508004525 7 228 9.7 14.5 0.00 2.18 2.18 98 1003.2
20260508003034 7 229 8.0 16.1 0.00 2.18 2.18 97 1002.7
20260508001522 7 200 4.8 16.1 0.03 2.18 2.18 98 1003.1
20260508000021 7 200 8.0 17.7 0.03 2.18 2.18 98 1003.2
20260507234520 7 193 11.3 22.5 0.03 2.18 2.18 97 1003.0
20260507233020 7 214 9.7 16.1 0.03 2.18 2.18 98 1003.7
20260507231518 7 198 11.3 19.3 0.00 2.16 2.16 97 1003.6
20260507230017 7 188 8.0 22.5 0.00 2.16 2.16 97 1003.7
20260507224518 7 208 4.8 17.7 0.00 2.16 2.16 97 1003.5
20260507223017 7 182 9.7 22.5 0.03 2.16 2.16 97 1003.6
20260507221517 8 192 12.9 22.5 0.05 2.16 2.16 97 1003.8
20260507220015 7 162 11.3 24.1 0.23 2.16 2.16 97 1003.7
20260507214514 7 204 14.5 29.0 0.43 2.16 2.16 97 1003.5
20260507213015 7 185 11.3 25.7 0.58 2.13 2.13 97 1003.9
20260507211510 7 180 9.7 17.7 0.76 2.11 2.11 97 1004.3
20260507210008 7 187 14.5 24.1 0.89 1.93 1.93 97 1004.6
20260507204507 7 229 11.3 22.5 1.07 1.73 1.73 97 1005.1